Regional Weather Roundup
Issued by NWS Midland/Odessa, TX

Skip options and go directly to product.
Home | Oldest Version | Next Version | Current Version | All | Text Only | Save Text | Print | Product List | Glossary On

Skip product version selection by date and time.   
067
ASUS44 KMAF 011010
RWRMAF
MIDLAND AREA WEATHER ROUNDUP
NATIONAL WEATHER SERVICE MIDLAND TX
500 AM CDT WED JUL 01 2015

...IN SOUTHWEST TEXAS AND SOUTHEAST NEW MEXICO...

CITY           SKY/WX    TMP DP  RH WIND       PRES   REMARKS
ALPINE         CLEAR     63  60  93 S6        30.19S
ANDREWS        FAIR      69  65  88 SW6       30.09S
ARTESIA        CLEAR     68  55  64 CALM      30.09F
BIG SPRING     CLEAR     74  70  87 S9        30.09S
CARLSBAD       CLEAR     68  59  73 SE6       30.05F
DRYDEN           N/A     73  69  87 S9        30.03S
FORT STOCKTON  PTCLDY    70  64  81 SE12      30.05F
GUAD PASS      CLEAR     68  56  65 NE7       30.20F
HOBBS          CLEAR     64  64 100 CALM      30.11S
MARFA          CLEAR    N/A N/A N/A CALM      30.17S
MIDLAND AIRPK  CLEAR     71  67  86 S5        30.08R
MIDLAND INTL   CLEAR     70  66  87 S8        30.07S
ODESSA         CLEAR     71  65  81 S10       30.08S
PECOS          CLEAR     68  64  84 E8        30.03S
PRESIDIO       FAIR      75  64  67 NE9       30.02S
SEMINOLE         N/A     67  63  85 S8        30.10S
SNYDER         CLEAR     69  67  95 S5        30.06S
WINK           CLEAR     70  64  81 SE9       30.04F
$$
...OTHER STATIONS IN TEXAS...

CITY           SKY/WX    TMP DP  RH WIND       PRES   REMARKS
ABILENE        CLEAR     73  66  78 S12       30.04R
AMARILLO       CLEAR     68  59  73 S15       30.07S
AUSTIN         PTCLDY    68  68 100 SW3       30.02S
BROWNSVILLE    MOCLDY    79  75  87 SE5       29.95F
CORPUS CHRISTI PTCLDY    77  74  90 E5        29.98F
DALLAS FTW     PTCLDY    76  70  82 SW13      29.98S
DEL RIO        CLOUDY    74  70  87 SE7       30.01F
EL PASO        PTCLDY    75  51  43 NE5       30.07F
HOUSTON INT    MOCLDY    72  71  97 CALM      30.03F
LUBBOCK        CLEAR     72  65  78 SW9       30.07F
SAN ANGELO     CLEAR     70  66  87 SW6       30.04F
SAN ANTONIO    PTCLDY    74  70  87 S6        30.04F
WACO           CLEAR     73  70  90 SW7       30.01F
WICHITA FALLS  NOT AVBL
$$
...OTHER LOCATIONS IN NEW MEXICO...

CITY           SKY/WX    TMP DP  RH WIND       PRES   REMARKS
ALAMAGORDO     CLEAR     68  48  49 CALM      30.12F
ALBUQUERQUE    CLEAR     72  44  36 E7        30.18S
CANNON AFB     CLEAR     64  57  78 SW5       30.12F
CLOVIS         CLEAR     61  55  82 SW6       30.13F
HOLLOMAN AFB   CLEAR     71  50  48 E6        30.10S
ROSWELL        CLEAR     65  54  67 S6        30.08F
RUIDOSO        CLEAR     59  45  58 W6        30.30F
SANTA FE       PTCLDY    65  42  43 N9        30.29R
TRUTH OR CONSE CLEAR     73  50  44 SW5       30.14S
TUCUMCARI      CLEAR     68  54  60 SW5       30.08S
$$

USA.gov is the U.S. government's official web portal to all federal, state and local government web resources and services.